Tracking 19164 objects as of 21-May-2018
HD Live streaming from Space Station
objects crossing your sky now

METEOR 2-16

Track METEOR 2-16 now!
10-day predictions
METEOR 2-16 is classified as:


NORAD ID: 18312
Int'l Code: 1987-068A
Perigee: 944.4 km
Apogee: 964.2 km
Inclination: 82.6 °
Period: 104.0 minutes
Semi major axis: 7325 km
RCS: 4.5144 m2 (large)
Launch date: August 18, 1987
Source: Commonwealth of Independent States (former USSR) (CIS)
Launch site: PLESETSK MISSILE AND SPACE COMPLEX (PKMTR)
aabbcc
Your satellite tracking list
Your tracking list is empty




NASA's NSSDC Master Catalog

Two Line Element Set (TLE):
1 18312U 87068A   18141.47461024  .00000036  00000-0  19072-4 0  9999
2 18312  82.5543 116.0773 0013546  51.2816 308.9553 13.84728064554269
Source of the keplerian elements: AFSPC